Вернуться в каталог

STARLINK-11527

АктивенСвязьVLEO
NORAD 62523·PAYLOAD·🇺🇸 United States

Запущен Jan 8, 2025 с Cape Canaveral Space Force Station

Loading…

Ближайшие Пролёты (ближайшие 24 часа)

TLE

СвежийSource: CelesTrak SupGP

Эпоха: Sep 14, 2026, 22:27 UTC

1 62523C 25004N   26257.93590278  .00034482  00000+0  26830-3 0  2573
2 62523  43.0007   9.7564 0001866 274.5960 131.0294 15.70777733    17

Отслеживайте STARLINK-11527 в реальном времени с AllMySat

Download on the App Store